Regional Weather Roundup
Issued by NWS

Home | Current Version | Previous Version | Graphics & Text | Print | Product List | Glossary On
Versions: 1 2 3 4 5 6 7 8 9 10 11 12 13 14 15 16 17 18 19 20 21 22 23 24 25 26 27 28 29 30 31 32 33 34 35 36 37 38 39 40 41 42 43 44 45 46 47 48 49 50
702
ASUS45 KBOU 290707
RWRCO

WEATHER ROUNDUP FOR COLORADO
NATIONAL WEATHER SERVICE DENVER/BOULDER CO
100 AM MDT FRI JUL 29 2016

NOTE: "FAIR" INDICATES FEW OR NO CLOUDS BELOW 12000 FEET WITH NO
SIGNIFICANT WEATHER AND/OR OBSTRUCTIONS TO VISIBILITY.

COZ001>005-013-030-031-290800-
...NORTHWEST COLORADO...

CITY           SKY/WX    TMP DP  RH WIND       PRES   REMARKS
CRAIG          FAIR      58  35  42 CALM      30.18R
HAYDEN         FAIR      63  34  34 E6        30.21S
MEEKER         FAIR      60  39  45 E6        30.22R
MOUNT WERNER   NOT AVBL
STEAMBOAT SPGS FAIR      59  39  47 N5        30.23S
WALDEN         FAIR      50  43  76 CALM      30.36S
$$

COZ006>008-011-290800-
...WEST CENTRAL VALLEYS...

CITY           SKY/WX    TMP DP  RH WIND       PRES   REMARKS
GRAND JUNCTION FAIR      74  30  19 SE5       30.04R
MONTROSE       FAIR      72  34  24 SE8       30.14S
EAGLE          FAIR      63  32  31 CALM      30.25R
RIFLE          FAIR      69  32  25 E6        30.13R
DELTA          NOT AVBL
NUCLA          NOT AVBL
$$

COZ017>023-064>068-290800-
...SOUTHWEST COLORADO...

CITY           SKY/WX    TMP DP  RH WIND       PRES   REMARKS
DURANGO        FAIR      62  38  40 NE7       30.23S
CORTEZ         FAIR      68  41  37 E5        30.16R
PAGOSA SPRINGS FAIR      59  38  45 CALM      30.34S
TELLURIDE      FAIR      60  32  35 SE6       30.46F
WOLF CREEK PAS FAIR      52  36  54 SW15      30.71S
$$

COZ009-010-012-014-032>034-037-058>063-290800-
...CENTRAL COLORADO...

CITY           SKY/WX    TMP DP  RH WIND       PRES   REMARKS
ASPEN          FAIR      58  33  39 S8        30.31F
BUENA VISTA    FAIR      60  44  55 SW3       30.39R
COPPER MTN     MOCLDY    59  21  23 W13       30.67F
BERTHOUD PASS  HAZE      41  28  60 SE5       30.71S VSB<1/4
COTTONWOOD PAS FAIR      61  45  55 CALM      30.53F
GUNNISON       FAIR      54  36  50 E3        30.35S
KREMMLING      FAIR      52  32  46 CALM      30.32R
LEADVILLE      FAIR      49  27  42 NE5       30.50S
MONARCH PASS   FOG       48  46  93 NE21      30.77S VSB<1/4
SALIDA         FAIR      67  55  64 SE8G17    30.43S
SUNLIGHT       NOT AVBL
WILKERSON PASS MOCLDY    50  46  87 CALM      30.66F
$$

COZ069>075-290800-
...SAN LUIS VALLEY/SANGRE DE CRISTO MOUNTAINS...

CITY           SKY/WX    TMP DP  RH WIND       PRES   REMARKS
ALAMOSA        FAIR      66  46  48 E15       30.30S
LA VETA PASS   FAIR      50  43  76 NE17      30.56S
SAGUACHE       FAIR      61  30  31 N6        30.35S
$$

COZ035-036-038>040-290800-
...NORTHERN COLORADO FRONT RANGE...

CITY           SKY/WX    TMP DP  RH WIND       PRES   REMARKS
DENVER INTL AP MOCLDY    67  58  72 E9        30.26S
DMNS CITY PARK   N/A     69  60  70 E6        30.25S
AURORA         MOCLDY    65  60  82 E5        30.27S
FRONT RANGE AP NOT AVBL
ERIE MUNI ARPT CLOUDY    69  57  66 E6        30.24F
BOULDER MUN AP CLOUDY    68  57  68 NW5       30.26R
CENTENNIAL     MOCLDY    65  61  87 SE8       30.27F
BROOMFIELD     CLOUDY    68  57  68 NE5       30.27F
LONGMONT       NOT AVBL
$$

COZ041-046-047-076>085-087-088-290800-
...PIKES PEAK/PALMER DIVIDE AND SOUTHERN FOOTHILLS...

CITY           SKY/WX    TMP DP  RH WIND       PRES   REMARKS
COLO. SPRINGS  MOCLDY    62  60  93 NE3       30.32F
A. F. ACADEMY  MOCLDY    60  57  90 SE6       30.32F
SCHRIEVER AFB  NOT AVBL
ELLICOTT       NOT AVBL
FALCON         FAIR      60  59  97 S3        30.36F
FORT CARSON    MOCLDY    63  58  84 NW2       30.28F
LIMON          FAIR      62  60  93 E8        30.25S
MONUMENT HILL  FAIR      57  55  94 SE6       30.37R
TRINIDAD       NOT AVBL
$$

COZ042>045-048>051-090-091-290800-
...NORTHEAST COLORADO...

CITY           SKY/WX    TMP DP  RH WIND       PRES   REMARKS
GREELEY ARPT   CLOUDY    64  59  82 SE6       30.24F
AKRON          FAIR      62  58  86 SE9       30.22F
BURLINGTON     MOCLDY    64  59  83 E5        30.21S
WRAY           MOCLDY    63  63 100 CALM      30.19R
STERLING       NOT AVBL
HOLYOKE        NOT AVBL
FORT MORGAN    NOT AVBL
$$

COZ086-089-092>099-290800-
...SOUTHEAST COLORADO...

CITY           SKY/WX    TMP DP  RH WIND       PRES   REMARKS
PUEBLO         FAIR      69  62  78 NE5       30.20S
LA JUNTA       LGT RAIN  68  58  70 SE29G40   30.09F
LAMAR          LGT RAIN  67  60  78 W8        30.13F
SPRINGFIELD      N/A     65  55  70 E15G24    30.16R
$$




USA.gov is the U.S. government's official web portal to all federal, state and local government web resources and services.